{"data":{"norad_id":41926,"epoch":"2026-09-20T03:29:38.677920Z","epoch_age_seconds":46089,"freshness":"FRESH","line1":"1 41926U 17003K   26263.14558655  .00000165  00000+0  51738-4 0  9990","line2":"2 41926  86.3948  48.6424 0002130  90.7679 269.3761 14.34217378506863","mean_motion":14.34217378,"eccentricity":0.000213,"inclination_deg":86.3948,"raan_deg":48.6424,"arg_perigee_deg":90.7679,"mean_anomaly_deg":269.3761,"bstar":5.1738e-5,"rev_number":50686,"period_min":100.40319006649,"perigee_km":776.14420516236,"apogee_km":779.19257825923,"semimajor_km":7155.8053917108,"source":"CELESTRAK","updated_at":"2026-09-20T09:00:36.321520Z"}}